This is the latest recevied weather packets stored in our database for station/object K1LVA. If no packets are shown the sender has not sent any weather packets the latest 10 day(s).
| Time | Temp. | Humidity | Pressure | Rain* | Wind** | Luminosity | Snow |
|---|---|---|---|---|---|---|---|
| 1777859971 | 12.22° C | 79% | 1017.7 hPa | 0 mm | - | 0 W/m² | - |
| 1777859667 | 11.67° C | 78% | 1017.7 hPa | 0 mm | - | 0 W/m² | - |
| 1777859363 | 12.22° C | 76% | 1017.6 hPa | 0 mm | - | 0 W/m² | - |
| 1777859059 | 12.22° C | 77% | 1017.6 hPa | 0 mm | - | 0 W/m² | - |
| 1777858756 | 12.22° C | 77% | 1017.5 hPa | 0 mm | - | 0 W/m² | - |
| 1777858455 | 12.22° C | 74% | 1017.6 hPa | 0 mm | - | 0 W/m² | - |
| 1777858151 | 12.22° C | 70% | 1017.3 hPa | 0 mm | - | 0 W/m² | - |
| 1777857849 | 12.78° C | 71% | 1017.3 hPa | 0 mm | - | 0 W/m² | - |
| 1777857546 | 12.78° C | 70% | 1017.5 hPa | 0 mm | - | 0 W/m² | - |
| 1777857243 | 12.78° C | 70% | 1017.2 hPa | 0 mm | - | 0 W/m² | - |
| 1777856939 | 13.33° C | 72% | 1017.2 hPa | 0 mm | - | 0 W/m² | - |
| 1777856635 | 13.33° C | 70% | 1017 hPa | 0 mm | - | 0 W/m² | - |
| 1777856331 | 13.33° C | 68% | 1016.9 hPa | 0 mm | - | 0 W/m² | - |
| 1777856028 | 13.33° C | 69% | 1016.9 hPa | 0 mm | - | 0 W/m² | - |
| 1777855726 | 13.89° C | 65% | 1016.9 hPa | 0 mm | - | 0 W/m² | - |
| 1777855423 | 13.89° C | 66% | 1017 hPa | 0 mm | - | 0 W/m² | - |
| 1777855120 | 13.89° C | 66% | 1016.9 hPa | 0 mm | - | 0 W/m² | - |
| 1777854817 | 14.44° C | 67% | 1016.7 hPa | 0 mm | - | 0 W/m² | - |
| 1777854513 | 15° C | 66% | 1016.9 hPa | 0 mm | - | 0 W/m² | - |
| 1777854210 | 15° C | 65% | 1016.7 hPa | 0 mm | - | 0 W/m² | - |
| 1777853908 | 15° C | 67% | 1016.7 hPa | 0 mm | - | 0 W/m² | - |
| 1777853605 | 15.56° C | 67% | 1016.7 hPa | 0 mm | - | 1 W/m² | - |
| 1777853302 | 15.56° C | 67% | 1016.9 hPa | 0 mm | - | 3 W/m² | - |
| 1777852999 | 16.11° C | 66% | 1016.5 hPa | 0 mm | - | 6 W/m² | - |
| 1777852696 | 16.67° C | 63% | 1016.7 hPa | 0 mm | - | 9 W/m² | - |
* Rain latest hour (hover to see other rain measurements)
** Current wind speed in m/s (hover to see current wind gust speed)